Weather History for Baker, MT

Change the Weather History Date:

Saturday, February 16, 2013

  Actual Average Record
Temperature  
Mean Temperature 40 °F -  
Max Temperature 50 °F 4 °F 50 °F (2013)
Min Temperature 30 °F 2 °F -13 °F (2006)
Degree Days  
Heating Degree Days 25    
Moisture  
Dew Point 25 °F    
Average Humidity 59    
Maximum Humidity 73    
Minimum Humidity 41    
Precipitation  
Precipitation 0.00 in - - ()
Sea Level Pressure  
Sea Level Pressure 29.93 in    
Wind  
Wind Speed 12 mph (West)    
Max Wind Speed 18 mph    
Max Gust Speed 22 mph    
Visibility 10 miles    
Events Snow    
Averages and records for this station are not official NWS values.
T = Trace of Precipitation, MM = Missing Value Source: NWS Daily Summary

Daily Weather History Graph

Daily Weather History Graph

Search for Another Location

Airport:

Trip Planner

Search our weather history database for the weather conditions in past years. The results will help you decide how hot, cold, wet, or windy it might be!

Date:

Astronomy

Feb. 16, 2013 Rise Set
Actual Time 6:58 AM MST 5:24 PM MST
Civil Twilight 6:27 AM MST 5:55 PM MST
Nautical Twilight 5:52 AM MST 6:30 PM MST
Astronomical Twilight 5:17 AM MST 7:05 PM MST
Moon 9:47 AM MST (2/16) No Moon Set
Length of Visible Light 11h 28m
Length of Day
10h 26m
Waxing Crescent, 40% of the Moon is Illuminated
Feb 16
Waxing Crescent
Feb 17
First Quarter
Feb 25
Full
Mar 4
Last Quarter
Mar 11
New

Hourly Weather History & Observations

Time (MST) Temp. Windchill Dew Point Humidity Pressure Visibility Wind Dir Wind Speed Gust Speed Precip Events Conditions
12:51 AM 36.0 °F 26.0 °F 23.0 °F 59% 30.01 in 10.0 mi West 17.3 mph - N/A   Overcast
1:51 AM 36.0 °F 25.6 °F 24.1 °F 62% 30.01 in 9.0 mi WNW 18.4 mph - 0.00 in Snow Light Snow
2:51 AM 34.0 °F 24.6 °F 24.1 °F 67% 30.02 in 9.0 mi West 13.8 mph - 0.00 in Snow Light Snow
3:51 AM 30.9 °F 22.2 °F 23.0 °F 72% 30.02 in 10.0 mi West 10.4 mph - 0.00 in   Clear
4:51 AM 30.9 °F 22.2 °F 23.0 °F 72% 30.01 in 10.0 mi West 10.4 mph - N/A   Clear
5:51 AM 30.9 °F 20.2 °F 23.0 °F 72% 30.01 in 10.0 mi West 15.0 mph - N/A   Clear
6:51 AM 30.0 °F - 21.9 °F 72% 30.02 in 10.0 mi Calm Calm - N/A   Clear
7:51 AM 32.0 °F 28.7 °F 24.1 °F 73% 30.03 in 10.0 mi WNW 3.5 mph - N/A   Clear
8:51 AM 36.0 °F 32.1 °F 25.0 °F 64% 30.01 in 10.0 mi West 4.6 mph - N/A   Clear
9:51 AM 43.0 °F 36.0 °F 26.1 °F 51% 29.99 in 10.0 mi WNW 13.8 mph - N/A   Clear
10:51 AM 45.0 °F 38.5 °F 27.0 °F 49% 29.98 in 10.0 mi WNW 13.8 mph 20.7 mph N/A   Clear
11:51 AM 46.0 °F 40.2 °F 27.0 °F 47% 29.96 in 10.0 mi WNW 12.7 mph 21.9 mph N/A   Clear
12:51 PM 48.0 °F - 28.0 °F 46% 29.94 in 10.0 mi WNW 16.1 mph 21.9 mph N/A   Clear
1:51 PM 48.9 °F - 27.0 °F 43% 29.91 in 10.0 mi NW 15.0 mph - N/A   Clear
2:51 PM 50.0 °F - 27.0 °F 41% 29.91 in 10.0 mi NW 11.5 mph - N/A   Clear
3:51 PM 48.9 °F - 27.0 °F 43% 29.90 in 10.0 mi WNW 9.2 mph - N/A   Clear
5:51 PM 37.9 °F 35.5 °F 26.1 °F 62% 29.88 in 10.0 mi SW 3.5 mph - N/A   Clear
6:51 PM 35.1 °F 31.0 °F 26.1 °F 70% 29.88 in 10.0 mi SSW 4.6 mph - N/A   Clear
7:51 PM 34.0 °F 28.8 °F 25.0 °F 70% 29.86 in 10.0 mi SW 5.8 mph - N/A   Clear
8:51 PM 39.0 °F 31.4 °F 26.1 °F 60% 29.82 in 10.0 mi SW 12.7 mph - N/A   Clear
9:51 PM 37.9 °F 30.0 °F 25.0 °F 60% 29.78 in 10.0 mi SSW 12.7 mph - N/A   Clear
10:51 PM 41.0 °F 33.1 °F 24.1 °F 51% 29.75 in 10.0 mi SW 15.0 mph - N/A   Clear
11:51 PM 39.9 °F 32.1 °F 24.1 °F 53% 29.72 in 10.0 mi SW 13.8 mph - N/A   Clear